Weather History for KCVX - June, 2014

Change the Weather History Date:

Thursday, June 26, 2014

  Actual Average Record
Temperature  
Mean Temperature 62 °F -  
Max Temperature 69 °F 74 °F 87 °F (2001)
Min Temperature 55 °F 60 °F 42 °F (2004)
Degree Days  
Heating Degree Days 3    
Growing Degree Days 12 (Base 50)    
Moisture  
Dew Point 52 °F    
Average Humidity 71    
Maximum Humidity 95    
Minimum Humidity 51    
Precipitation  
Precipitation 0.00 in - - ()
Sea Level Pressure  
Sea Level Pressure 30.11 in    
Wind  
Wind Speed 2 mph (NNW)    
Max Wind Speed 8 mph    
Max Gust Speed -    
Visibility 10 miles    
Events      
Averages and records for this station are not official NWS values.
T = Trace of Precipitation, MM = Missing Value Source: NWS Daily Summary

Daily Weather History Graph

Daily Weather History Graph

Search for Another Location

Airport or City:

Trip Planner

Search our weather history database for the weather conditions in past years. The results will help you decide how hot, cold, wet, or windy it might be!

Date:

Astronomy

Jun. 26, 2014 Rise Set
Actual Time 5:54 AM EDT 9:33 PM EDT
Civil Twilight 5:16 AM EDT 10:10 PM EDT
Nautical Twilight 4:26 AM EDT 11:01 PM EDT
Astronomical Twilight 3:19 AM EDT 12:08 AM EDT
Moon 5:37 AM EDT (6/26) 8:49 PM EDT (6/26)
Length of Visible Light 16h 53m
Length of Day
15h 38m
Waning Crescent, 0% of the Moon is Illuminated
Jun 26
Waning Crescent
Jun 27
New
Jul 5
First Quarter
Jul 12
Full
Jul 18
Last Quarter

Hourly Weather History & Observations

Time (EDT) Temp. Dew Point Humidity Pressure Visibility Wind Dir Wind Speed Gust Speed Precip Events Conditions
12:15 AM 59.2 °F 54.1 °F 83% 30.10 in 10.0 mi Calm Calm - N/A   Overcast
12:35 AM 59.9 °F 54.5 °F 82% 30.09 in 10.0 mi NE 5.8 mph - N/A   Overcast
1:15 AM 57.4 °F 53.2 °F 86% 30.10 in 10.0 mi Calm Calm - N/A   Overcast
1:35 AM 57.2 °F 53.8 °F 88% 30.10 in 10.0 mi Calm Calm - N/A   Overcast
1:54 AM 55.9 °F 53.2 °F 91% 30.09 in 10.0 mi Calm Calm - N/A   Scattered Clouds
2:15 AM 56.3 °F 54.1 °F 92% 30.10 in 10.0 mi Calm Calm - N/A   Scattered Clouds
2:35 AM 55.6 °F 53.8 °F 94% 30.10 in 10.0 mi Calm Calm - N/A   Scattered Clouds
2:54 AM 55.6 °F 54.1 °F 95% 30.10 in 10.0 mi Calm Calm - N/A   Clear
3:15 AM 55.6 °F 54.1 °F 95% 30.10 in 10.0 mi Calm Calm - N/A   Mostly Cloudy
3:34 AM 56.1 °F 54.7 °F 95% 30.10 in 10.0 mi Calm Calm - N/A   Overcast
3:55 AM 55.9 °F 54.5 °F 95% 30.10 in 10.0 mi NW 3.5 mph - N/A   Overcast
4:15 AM 55.0 °F 53.6 °F 95% 30.10 in 10.0 mi NNE 3.5 mph - N/A   Overcast
4:34 AM 55.8 °F 53.8 °F 93% 30.10 in 10.0 mi Calm Calm - N/A   Overcast
4:55 AM 56.3 °F 53.8 °F 91% 30.10 in 10.0 mi Calm Calm - N/A   Overcast
5:14 AM 56.3 °F 53.6 °F 91% 30.11 in 10.0 mi SW 3.5 mph - N/A   Overcast
5:34 AM 55.9 °F 53.6 °F 92% 30.12 in 10.0 mi WSW 3.5 mph - N/A   Overcast
5:55 AM 56.3 °F 53.4 °F 90% 30.11 in 10.0 mi Calm Calm - N/A   Overcast
6:14 AM 56.5 °F 53.1 °F 88% 30.12 in 10.0 mi Calm Calm - N/A   Overcast
6:34 AM 55.8 °F 51.4 °F 85% 30.12 in 10.0 mi Calm Calm - N/A   Overcast
6:55 AM 55.6 °F 50.4 °F 83% 30.12 in 10.0 mi Calm Calm - N/A   Mostly Cloudy
7:14 AM 55.8 °F 50.2 °F 82% 30.12 in 10.0 mi North 3.5 mph - N/A   Scattered Clouds
7:35 AM 55.9 °F 50.2 °F 81% 30.12 in 10.0 mi North 3.5 mph - N/A   Scattered Clouds
7:55 AM 56.7 °F 49.3 °F 76% 30.13 in 10.0 mi Calm Calm - N/A   Scattered Clouds
8:14 AM 59.5 °F 50.9 °F 73% 30.12 in 10.0 mi Calm Calm - N/A   Mostly Cloudy
8:35 AM 61.2 °F 50.9 °F 69% 30.12 in 10.0 mi NNW 4.6 mph - N/A   Overcast
8:55 AM 61.2 °F 50.5 °F 68% 30.13 in 10.0 mi NNW 3.5 mph - N/A   Mostly Cloudy
9:14 AM 60.8 °F 50.5 °F 69% 30.13 in 10.0 mi NNW 3.5 mph - N/A   Clear
9:35 AM 61.9 °F 50.7 °F 67% 30.13 in 10.0 mi NNW 3.5 mph - N/A   Clear
9:55 AM 62.8 °F 51.3 °F 66% 30.13 in 10.0 mi NNW 3.5 mph - N/A   Clear
10:14 AM 61.0 °F 50.0 °F 67% 30.14 in 10.0 mi NNW 4.6 mph - N/A   Mostly Cloudy
10:35 AM 61.2 °F 51.3 °F 70% 30.14 in 10.0 mi NNW 4.6 mph - N/A   Overcast
10:55 AM 64.4 °F 51.8 °F 64% 30.14 in 10.0 mi NNW 4.6 mph - N/A   Mostly Cloudy
11:14 AM 64.4 °F 51.4 °F 63% 30.13 in 10.0 mi NNW 5.8 mph - N/A   Clear
11:35 AM 63.0 °F 52.0 °F 67% 30.13 in 10.0 mi North 6.9 mph - N/A   Clear
11:55 AM 63.5 °F 51.8 °F 66% 30.13 in 10.0 mi North 5.8 mph - N/A   Clear
12:14 PM 65.3 °F 52.0 °F 62% 30.13 in 10.0 mi NNW 5.8 mph - N/A   Clear
12:35 PM 64.8 °F 52.3 °F 64% 30.13 in 10.0 mi NNW 5.8 mph - N/A   Clear
12:55 PM 65.7 °F 53.8 °F 65% 30.13 in 10.0 mi NNW 6.9 mph - N/A   Clear
1:14 PM 67.1 °F 53.4 °F 61% 30.13 in 10.0 mi North 6.9 mph - N/A   Clear
1:35 PM 66.2 °F 52.3 °F 61% 30.12 in 10.0 mi NNW 5.8 mph - N/A   Clear
1:54 PM 67.1 °F 52.2 °F 59% 30.12 in 10.0 mi NNW 6.9 mph - N/A   Clear
2:14 PM 68.2 °F 52.2 °F 56% 30.12 in 10.0 mi North 8.1 mph - N/A   Clear
2:35 PM 69.3 °F 51.3 °F 53% 30.12 in 10.0 mi North 5.8 mph - N/A   Clear
2:54 PM 69.6 °F 50.7 °F 51% 30.12 in 10.0 mi NNW 6.9 mph - N/A   Clear
3:14 PM 67.3 °F 52.0 °F 58% 30.11 in 10.0 mi NNW 4.6 mph - N/A   Clear
3:35 PM 67.8 °F 51.4 °F 56% 30.11 in 10.0 mi NNW 5.8 mph - N/A   Clear
3:54 PM 66.7 °F 51.6 °F 58% 30.11 in 10.0 mi NNW 6.9 mph - N/A   Clear
4:35 PM 66.2 °F 52.5 °F 61% 30.11 in 10.0 mi NNW 4.6 mph - N/A   Clear
4:54 PM 66.6 °F 52.7 °F 61% 30.10 in 10.0 mi NNW 5.8 mph - N/A   Clear
5:14 PM 67.1 °F 52.3 °F 59% 30.10 in 10.0 mi NNW 5.8 mph - N/A   Clear
5:35 PM 66.9 °F 52.0 °F 59% 30.10 in 10.0 mi NNW 5.8 mph - N/A   Clear
5:54 PM 68.0 °F 51.4 °F 55% 30.09 in 10.0 mi North 4.6 mph - N/A   Clear
6:15 PM 67.3 °F 50.7 °F 55% 30.08 in 10.0 mi North 4.6 mph - N/A   Clear
6:35 PM 67.5 °F 50.7 °F 55% 30.08 in 10.0 mi North 6.9 mph - N/A   Clear
6:54 PM 67.1 °F 50.5 °F 55% 30.08 in 10.0 mi Calm Calm - N/A   Clear
7:15 PM 65.8 °F 50.9 °F 58% 30.08 in 10.0 mi North 3.5 mph - N/A   Clear
7:35 PM 65.7 °F 51.8 °F 61% 30.08 in 10.0 mi Calm Calm - N/A   Clear
7:54 PM 65.8 °F 52.5 °F 62% 30.07 in 10.0 mi Calm Calm - N/A   Clear
8:15 PM 66.2 °F 52.7 °F 62% 30.07 in 10.0 mi Calm Calm - N/A   Clear
8:35 PM 66.6 °F 52.2 °F 60% 30.07 in 10.0 mi Calm Calm - N/A   Clear
8:54 PM 66.7 °F 51.6 °F 58% 30.07 in 10.0 mi Calm Calm - N/A   Clear
9:15 PM 66.2 °F 52.0 °F 60% 30.08 in 10.0 mi Calm Calm - N/A   Clear
9:34 PM 64.9 °F 52.2 °F 63% 30.08 in 10.0 mi Calm Calm - N/A   Clear
9:54 PM 64.4 °F 53.1 °F 67% 30.08 in 4.0 mi Calm Calm - N/A   Haze
10:34 PM 63.1 °F 53.4 °F 71% 30.09 in 10.0 mi ESE 3.5 mph - N/A   Clear
10:54 PM 63.5 °F 53.8 °F 71% 30.10 in 10.0 mi ESE 3.5 mph - N/A   Clear
11:15 PM 63.3 °F 53.6 °F 71% 30.10 in 10.0 mi ESE 3.5 mph - N/A   Clear
11:34 PM 64.2 °F 53.1 °F 67% 30.10 in 10.0 mi SE 3.5 mph - N/A   Clear
11:54 PM 63.5 °F 52.9 °F 68% 30.10 in 10.0 mi SE 4.6 mph - N/A   Clear